H1 CPF 2 NER 2025 9 29 9 272 01 glonass142 H2 2001801 9142 45358 2025 9 29 0 0 0 2025 10 2 23 45 0 900 1 1 0 0 0 1 H9 10 0 60947 0.00000 0 -1004540.415 15207300.880 20467498.861 10 0 60947 900.00000 0 -2560023.432 17061120.667 18798726.734 10 0 60947 1800.00000 0 -3837819.246 18843036.615 16765152.008 10 0 60947 2700.00000 0 -4832221.018 20489051.809 14406094.550 10 0 60947 3600.00000 0 -5550065.737 21937267.614 11767228.276 10 0 60947 4500.00000 0 -6010194.736 23130442.664 8899706.046 10 0 60947 5400.00000 0 -6242407.496 24018380.404 5859174.193 10 0 60947 6300.00000 0 -6285952.702 24560044.259 2704695.088 10 0 60947 7200.00000 0 -6187620.200 24725310.356 -502401.489 10 0 60947 8100.00000 0 -5999514.854 24496282.666 -3699715.658 10 0 60947 9000.00000 0 -5776607.104 23868113.591 -6824999.484 10 0 60947 9900.00000 0 -5574164.986 22849293.913 -9817378.971 10 0 60947 10800.00000 0 -5445177.658 21461398.564 -12618551.028 10 0 60947 11700.00000 0 -5437881.156 19738297.869 -15173930.859 10 0 60947 12600.00000 0 -5593492.762 17724866.799 -17433726.165 10 0 60947 13500.00000 0 -5944251.539 15475246.194 -19353916.228 10 0 60947 14400.00000 0 -6511849.381 13050728.995 -20897116.029 10 0 60947 15300.00000 0 -7306320.159 10517360.406 -22033308.059 10 0 60947 16200.00000 0 -8325434.854 7943352.901 -22740427.414 10 0 60947 17100.00000 0 -9554628.882 5396424.527 -23004788.922 10 0 60947 18000.00000 0 -10967465.083 2941171.985 -22821348.295 10 0 60947 18900.00000 0 -12526613.039 636588.073 -22193792.795 10 0 60947 19800.00000 0 -14185303.529 -1466173.349 -21134460.237 10 0 60947 20700.00000 0 -15889196.796 -3325692.440 -19664088.609 10 0 60947 21600.00000 0 -17578585.939 -4911760.729 -17811401.860 10 0 60947 22500.00000 0 -19190842.669 -6206380.717 -15612540.548 10 0 60947 23400.00000 0 -20663002.570 -7204247.967 -13110349.070 10 0 60947 24300.00000 0 -21934381.231 -7912697.779 -10353533.923 10 0 60947 25200.00000 0 -22949111.548 -8351121.055 -7395709.857 10 0 60947 26100.00000 0 -23658495.831 -8549876.215 -4294353.011 10 0 60947 27000.00000 0 -24023074.430 -8548745.053 -1109681.761 10 0 60947 27900.00000 0 -24014324.570 -8394999.421 2096512.694 10 0 60947 28800.00000 0 -23615918.754 -8141161.657 5262063.063 10 0 60947 29700.00000 0 -22824490.640 -7842554.190 8325626.850 10 0 60947 30600.00000 0 -21649876.930 -7554742.267 11227868.331 10 0 60947 31500.00000 0 -20114825.632 -7330977.770 13912599.144 10 0 60947 32400.00000 0 -18254183.151 -7219751.709 16327856.145 10 0 60947 33300.00000 0 -16113594.112 -7262558.099 18426896.568 10 0 60947 34200.00000 0 -13747767.744 -7491962.853 20169092.261 10 0 60947 35100.00000 0 -11218382.244 -7930058.522 21520706.847 10 0 60947 36000.00000 0 -8591713.170 -8587369.618 22455541.828 10 0 60947 36900.00000 0 -5936083.005 -9462254.645 22955440.009 10 0 60947 37800.00000 0 -3319236.191 -10540830.506 23010637.128 10 0 60947 38700.00000 0 -805746.887 -11797423.534 22619955.131 10 0 60947 39600.00000 0 1545434.552 -13195529.688 21790833.158 10 0 60947 40500.00000 0 3683195.943 -14689245.489 20539195.039 10 0 60947 41400.00000 0 5566147.656 -16225111.693 18889154.851 10 0 60947 42300.00000 0 7164099.377 -17744294.356 16872564.966 10 0 60947 43200.00000 0 8459068.227 -19185013.537 14528413.850 10 0 60947 44100.00000 0 9445776.297 -20485119.075 11902083.812 10 0 60947 45000.00000 0 10131616.725 -21584706.017 9044481.733 10 0 60947 45900.00000 0 10536089.558 -22428659.985 6011058.586 10 0 60947 46800.00000 0 10689730.955 -22969024.944 2860736.018 10 0 60947 47700.00000 0 10632580.772 -23167092.723 -345239.324 10 0 60947 48600.00000 0 10412253.395 -22995124.848 -3544491.290 10 0 60947 49500.00000 0 10081693.818 -22437632.452 -6674735.670 10 0 60947 50400.00000 0 9696714.706 -21492158.565 -9675002.804 10 0 60947 51300.00000 0 9313419.805 -20169528.136 -12486836.387 10 0 60947 52200.00000 0 8985624.162 -18493553.839 -15055443.866 10 0 60947 53100.00000 0 8762381.844 -16500208.935 -17330774.764 10 0 60947 54000.00000 0 8685727.293 -14236301.252 -19268504.896 10 0 60947 54900.00000 0 8788727.232 -11757703.591 -20830906.517 10 0 60947 55800.00000 0 9093926.637 -9127214.724 -21987586.946 10 0 60947 56700.00000 0 9612255.293 -6412140.697 -22716081.108 10 0 60947 57600.00000 0 10342441.661 -3681697.780 -23002286.582 10 0 60947 58500.00000 0 11270959.031 -1004345.760 -22840733.015 10 0 60947 59400.00000 0 12372506.226 1554837.155 -22234681.179 10 0 60947 60300.00000 0 13611002.406 3936628.653 -21196050.359 10 0 60947 61200.00000 0 14941053.705 6089883.275 -19745176.169 10 0 60947 62100.00000 0 16309829.558 7973408.444 -17910404.170 10 0 60947 63000.00000 0 17659269.316 9557418.760 -15727527.842 10 0 60947 63900.00000 0 18928525.918 10824509.568 -13239082.495 10 0 60947 64800.00000 0 20056543.519 11770111.245 -10493509.418 10 0 60947 65700.00000 0 20984660.483 12402407.440 -7544207.055 10 0 60947 66600.00000 0 21659128.258 12741723.064 -4448488.194 10 0 60947 67500.00000 0 22033440.337 12819409.976 -1266463.814 10 0 60947 68400.00000 0 22070373.737 12676279.280 1940124.383 10 0 60947 69300.00000 0 21743657.598 12360647.910 5109099.906 10 0 60947 70200.00000 0 21039199.338 11926083.096 8179052.657 10 0 60947 71100.00000 0 19955817.352 11428940.532 11090522.332 10 0 60947 72000.00000 0 18505449.921 10925800.373 13787141.500 10 0 60947 72900.00000 0 16712831.716 10470908.994 16216716.961 10 0 60947 73800.00000 0 14614651.293 10113733.853 18332229.344 10 0 60947 74700.00000 0 12258224.268 9896733.736 20092732.638 10 0 60947 75600.00000 0 9699736.636 9853437.508 21464137.388 10 0 60947 76500.00000 0 7002130.104 10006911.528 22419863.464 10 0 60947 77400.00000 0 4232715.862 10368679.775 22941350.673 10 0 60947 78300.00000 0 1460614.133 10938142.048 23018417.985 10 0 60947 79200.00000 0 -1245876.088 11702515.146 22649464.672 10 0 60947 80100.00000 0 -3821869.743 12637300.419 21841509.302 10 0 60947 81000.00000 0 -6208344.910 13707259.410 20610065.263 10 0 60947 81900.00000 0 -8354348.190 14867858.288 18978854.240 10 0 60947 82800.00000 0 -10218865.546 16067122.168 16979361.876 10 0 60947 83700.00000 0 -11772281.387 17247823.105 14650242.815 10 0 60947 84600.00000 0 -12997365.283 18349911.226 12036585.090 10 0 60947 85500.00000 0 -13889745.062 19313087.685 9189046.787 10 0 60948 0.00000 0 -14457846.230 20079411.486 6162880.911 10 0 60948 900.00000 0 -14722300.232 20595830.540 3016864.965 10 0 60948 1800.00000 0 -14714845.563 20816528.441 -187840.093 10 0 60948 2700.00000 0 -14476769.049 20704988.097 -3388884.581 10 0 60948 3600.00000 0 -14056952.509 20235682.343 -6523950.625 10 0 60948 4500.00000 0 -13509608.301 19395318.854 -9531975.371 10 0 60948 5400.00000 0 -12891800.348 18183584.830 -12354351.578 10 0 60948 6300.00000 0 -12260856.666 16613358.353 -14936080.997 10 0 60948 7200.00000 0 -11671784.202 14710376.023 -17226856.777 10 0 60948 8100.00000 0 -11174796.683 12512369.727 -19182052.802 10 0 60948 9000.00000 0 -10813061.260 10067708.031 -20763599.856 10 0 60948 9900.00000 0 -10620760.255 7433598.781 -21940731.059 10 0 60948 10800.00000 0 -10621550.646 4673928.038 -22690581.855 10 0 60948 11700.00000 0 -10827486.738 1856825.756 -22998632.974 10 0 60948 12600.00000 0 -11238451.585 -947940.010 -22858988.072 10 0 60948 13500.00000 0 -11842120.935 -3671631.621 -22274481.164 10 0 60948 14400.00000 0 -12614460.736 -6249162.024 -21256612.376 10 0 60948 15300.00000 0 -13520736.638 -8621557.729 -19825313.933 10 0 60948 16200.00000 0 -14516992.210 -10738162.761 -18008551.622 10 0 60948 17100.00000 0 -15551932.866 -12558492.803 -15841770.129 10 0 60948 18000.00000 0 -16569135.425 -14053663.648 -13367193.669 10 0 60948 18900.00000 0 -17509489.621 -15207336.147 -10632996.102 10 0 60948 19800.00000 0 -18313768.283 -16016140.170 -7692357.191 10 0 60948 20700.00000 0 -18925217.583 -16489562.086 -4602423.888 10 0 60948 21600.00000 0 -19292058.202 -16649302.667 -1423197.239 10 0 60948 22500.00000 0 -19369792.144 -16528134.529 1783633.143 10 0 60948 23400.00000 0 -19123218.330 -16168308.987 4955884.185 10 0 60948 24300.00000 0 -18528072.534 -15619580.828 8032080.838 10 0 60948 25200.00000 0 -17572223.057 -14936935.214 10952640.857 10 0 60948 26100.00000 0 -16256372.218 -14178112.961 13661020.338 10 0 60948 27000.00000 0 -14594234.363 -13401038.447 16104798.500 10 0 60948 27900.00000 0 -12612182.744 -12661258.058 18236681.663 10 0 60948 28800.00000 0 -10348379.534 -12009496.234 20015407.982 10 0 60948 29700.00000 0 -7851424.407 -11489431.006 21406536.610 10 0 60948 30600.00000 0 -5178576.682 -11135781.572 22383107.087 10 0 60948 31500.00000 0 -2393623.432 -10972787.465 22926157.114 10 0 60948 32400.00000 0 435519.720 -11013142.649 23025089.360 10 0 60948 33300.00000 0 3239377.519 -11257429.165 22677880.471 10 0 60948 34200.00000 0 5949549.030 -11694074.439 21891128.113 10 0 60948 35100.00000 0 8501299.194 -12299834.814 20679934.544 10 0 60948 36000.00000 0 10836001.928 -13040786.176 19067628.012 10 0 60948 36900.00000 0 12903334.441 -13873781.433 17085326.081 10 0 60948 37800.00000 0 14663132.229 -14748315.055 14771347.876 10 0 60948 38700.00000 0 16086827.804 -15608717.572 12170485.132 10 0 60948 39600.00000 0 17158413.076 -16396588.648 9333144.793 10 0 60948 40500.00000 0 17874884.842 -17053366.752 6314378.693 10 0 60948 41400.00000 0 18246154.362 -17522927.081 3172818.377 10 0 60948 42300.00000 0 18294424.376 -17754097.479 -30464.501 10 0 60948 43200.00000 0 18053059.591 -17702985.002 -3233149.892 10 0 60948 44100.00000 0 17564998.239 -17335013.301 -6372889.427 10 0 60948 45000.00000 0 16880772.062 -16626582.887 -9388530.111 10 0 60948 45900.00000 0 16056219.000 -15566282.186 -12221316.655 10 0 60948 46800.00000 0 15149986.186 -14155596.324 -14816047.774 10 0 60948 47700.00000 0 14220929.900 -12409081.984 -17122162.645 10 0 60948 48600.00000 0 13325523.603 -10353999.492 -19094735.312 10 0 60948 49500.00000 0 12515384.695 -8029416.451 -20695356.855 10 0 60948 50400.00000 0 11835025.449 -5484819.799 -21892887.589 10 0 60948 51300.00000 0 11319923.739 -2778293.991 -22664064.462 10 0 60948 52200.00000 0 10994995.299 25658.664 -22993951.915 10 0 60948 53100.00000 0 10873531.907 2858564.465 -22876227.737 10 0 60948 54000.00000 0 10956649.893 5650589.497 -22313298.891 10 0 60948 54900.00000 0 11233271.493 8333206.719 -21316245.624 10 0 60948 55800.00000 0 11680638.950 10841808.032 -19904595.679 10 0 60948 56700.00000 0 12265338.633 13118153.002 -18105933.609 10 0 60948 57600.00000 0 12944790.922 15112552.961 -15955353.499 10 0 60948 58500.00000 0 13669141.982 16785700.557 -13494766.334 10 0 60948 59400.00000 0 14383476.699 18110069.828 -10772076.101 10 0 60948 60300.00000 0 15030258.693 19070830.089 -7840241.155 10 0 60948 61200.00000 0 15551893.856 19666237.339 -4756239.653 10 0 60948 62100.00000 0 15893308.961 19907488.876 -1579959.577 10 0 60948 63000.00000 0 16004436.441 19818049.286 1626964.765 10 0 60948 63900.00000 0 15842500.631 19432477.980 4802346.916 10 0 60948 64800.00000 0 15374009.348 18794809.173 7884649.960 10 0 60948 65700.00000 0 14576367.220 17956553.629 10814172.617 10 0 60948 66600.00000 0 13439043.159 16974406.937 13534197.154 10 0 60948 67500.00000 0 11964243.019 15907760.948 15992077.576 10 0 60948 68400.00000 0 10167059.098 14816122.745 18140247.944 10 0 60948 69300.00000 0 8075089.758 13756548.975 19937132.311 10 0 60948 70200.00000 0 5727544.184 12781202.333 21347939.833 10 0 60948 71100.00000 0 3173868.394 11935131.679 22345330.764 10 0 60948 72000.00000 0 471948.111 11254367.810 22909941.353 10 0 60948 72900.00000 0 -2314038.658 10764413.828 23030758.202 10 0 60948 73800.00000 0 -5116032.212 10479192.743 22705335.117 10 0 60948 74700.00000 0 -7864666.904 10400496.218 21939848.146 10 0 60948 75600.00000 0 -10491907.146 10517957.778 20748987.201 10 0 60948 76500.00000 0 -12933635.951 10809552.186 19155685.380 10 0 60948 77400.00000 0 -15132089.805 11242600.977 17190689.987 10 0 60948 78300.00000 0 -17038039.532 11775243.003 14891982.072 10 0 60948 79200.00000 0 -18612626.733 12358309.234 12304054.219 10 0 60948 80100.00000 0 -19828779.192 12937523.841 9477059.200 10 0 60948 81000.00000 0 -20672145.761 13455939.365 6465844.859 10 0 60948 81900.00000 0 -21141511.025 13856503.364 3328893.164 10 0 60948 82800.00000 0 -21248671.741 14084647.739 127183.753 10 0 60948 83700.00000 0 -21017779.720 14090790.388 -3076995.802 10 0 60948 84600.00000 0 -20484178.531 13832641.994 -6221269.314 10 0 60948 85500.00000 0 -19692783.034 13277218.650 -9244396.152 10 0 60949 0.00000 0 -18696070.574 12402473.343 -12087475.038 10 0 60949 900.00000 0 -17551768.687 11198474.789 -14695104.233 10 0 60949 1800.00000 0 -16320339.268 9668083.153 -17016470.481 10 0 60949 2700.00000 0 -15062364.646 7827090.891 -19006349.491 10 0 60949 3600.00000 0 -13835948.239 5703822.419 -20625993.801 10 0 60949 4500.00000 0 -12694239.856 3338207.955 -21843891.742 10 0 60949 5400.00000 0 -11683190.723 780369.704 -22636382.234 10 0 60949 6300.00000 0 -10839633.149 -1911220.859 -22988113.546 10 0 60949 7200.00000 0 -10189765.641 -4671937.746 -22892337.374 10 0 60949 8100.00000 0 -9748106.788 -7433455.671 -22351033.048 10 0 60949 9000.00000 0 -9516961.101 -10126363.348 -21374860.037 10 0 60949 9900.00000 0 -9486418.162 -12682826.000 -19982940.359 10 0 60949 10800.00000 0 -9634883.781 -15039186.379 -18202475.808 10 0 60949 11700.00000 0 -9930119.334 -17138396.406 -16068208.077 10 0 60949 12600.00000 0 -10330744.033 -18932178.771 -13621732.930 10 0 60949 13500.00000 0 -10788135.425 -20382829.400 -10910682.344 10 0 60949 14400.00000 0 -11248646.767 -21464586.903 -7987791.048 10 0 60949 15300.00000 0 -11656046.745 -22164513.336 -4909866.148 10 0 60949 16200.00000 0 -11954077.853 -22482851.235 -1736680.299 10 0 60949 17100.00000 0 -12089024.998 -22432843.832 1470189.757 10 0 60949 18000.00000 0 -12012185.772 -22040027.787 4648556.455 10 0 60949 18900.00000 0 -11682138.193 -21341029.758 7736823.303 10 0 60949 19800.00000 0 -11066710.501 -20381918.642 10675172.285 10 0 60949 20700.00000 0 -10144570.248 -19216183.591 13406714.142 10 0 60949 21600.00000 0 -8906365.983 -17902423.131 15878579.918 10 0 60949 22500.00000 0 -7355373.521 -16501842.324 18042933.566 10 0 60949 23400.00000 0 -5507619.337 -15075662.442 19857887.019 10 0 60949 24300.00000 0 -3391475.200 -13682550.900 21288301.185 10 0 60949 25200.00000 0 -1046739.810 -12376177.900 22306458.486 10 0 60949 26100.00000 0 1476755.755 -11203000.917 22892594.852 10 0 60949 27000.00000 0 4120962.630 -10200368.491 23035281.592 10 0 60949 27900.00000 0 6821775.417 -9395021.673 22731650.082 10 0 60949 28800.00000 0 9511452.458 -8802055.133 21987454.809 10 0 60949 29700.00000 0 12121196.735 -8424381.102 20816973.031 10 0 60949 30600.00000 0 14583792.090 -8252718.675 19242742.052 10 0 60949 31500.00000 0 16836186.692 -8266109.389 17295137.914 10 0 60949 32400.00000 0 18821917.378 -8432938.121 15011802.230 10 0 60949 33300.00000 0 20493274.438 -8712417.236 12436926.706 10 0 60949 34200.00000 0 21813116.592 -9056472.296 9620407.830 10 0 60949 35100.00000 0 22756259.964 -9411950.427 6616886.975 10 0 60949 36000.00000 0 23310382.243 -9723058.370 3484693.709 10 0 60949 36900.00000 0 23476403.313 -9933926.987 284712.561 10 0 60949 37800.00000 0 23268325.533 -9991193.041 -2920804.649 10 0 60949 38700.00000 0 22712539.770 -9846487.820 -6069457.248 10 0 60949 39600.00000 0 21846626.017 -9458725.683 -9099920.252 10 0 60949 40500.00000 0 20717699.118 -8796093.794 -11953149.999 10 0 60949 41400.00000 0 19380369.663 -7837656.855 -14573546.164 10 0 60949 42300.00000 0 17894406.677 -6574507.000 -16910046.173 10 0 60949 43200.00000 0 16322201.471 -5010408.435 -18917129.679 10 0 60949 44100.00000 0 14726140.482 -3161907.998 -20555712.627 10 0 60949 45000.00000 0 13165998.622 -1057905.673 -21793912.959 10 0 60949 45900.00000 0 11696463.538 1261297.894 -22607672.798 10 0 60949 46800.00000 0 10364895.300 3745437.604 -22981225.080 10 0 60949 47700.00000 0 9209415.690 6336144.067 -22907395.842 10 0 60949 48600.00000 0 8257406.947 8969150.121 -22387736.802 10 0 60949 49500.00000 0 7524482.173 11576751.633 -21432486.238 10 0 60949 50400.00000 0 7013969.430 14090419.875 -20060359.621 10 0 60949 51300.00000 0 6716929.692 16443456.628 -18298174.735 10 0 60949 52200.00000 0 6612706.143 18573581.523 -16180319.236 10 0 60949 53100.00000 0 6669979.935 20425344.098 -13748071.633 10 0 60949 54000.00000 0 6848286.158 21952260.634 -11048789.491 10 0 60949 54900.00000 0 7099924.518 23118587.500 -8134981.182 10 0 60949 55800.00000 0 7372182.719 23900658.102 -5063279.746 10 0 60949 56700.00000 0 7609777.630 24287728.955 -1893339.286 10 0 60949 57600.00000 0 7757410.364 24282301.063 1313324.372 10 0 60949 58500.00000 0 7762326.948 23899904.719 4494525.923 10 0 60949 59400.00000 0 7576776.281 23168358.313 7588612.596 10 0 60949 60300.00000 0 7160261.739 22126533.502 10535652.768 10 0 60949 61200.00000 0 6481491.644 20822679.527 13278588.550 10 0 60949 62100.00000 0 5519946.672 19312377.487 15764330.640 10 0 60949 63000.00000 0 4266998.297 17656210.368 17944775.192 10 0 60949 63900.00000 0 2726531.151 15917246.061 19777723.995 10 0 60949 64800.00000 0 915042.680 14158437.877 21227691.346 10 0 60949 65700.00000 0 -1138785.031 12440050.149 22266583.103 10 0 60949 66600.00000 0 -3395024.723 10817215.171 22874235.745 10 0 60949 67500.00000 0 -5803917.280 9337722.139 23038805.729 10 0 60949 68400.00000 0 -8307702.105 8040129.117 22757001.959 10 0 60949 69300.00000 0 -10842790.557 6952275.815 22034156.808 10 0 60949 70200.00000 0 -13342194.280 6090258.573 20884133.789 10 0 60949 71100.00000 0 -15738109.490 5457910.008 19329072.764 10 0 60949 72000.00000 0 -17964551.419 5046805.119 17398976.355 10 0 60949 72900.00000 0 -19959930.492 4836793.898 15131144.114 10 0 60949 73800.00000 0 -21669463.649 4797038.588 12569463.861 10 0 60949 74700.00000 0 -23047320.315 4887512.564 9763572.541 10 0 60949 75600.00000 0 -24058413.022 5060898.192 6767901.640 10 0 60949 76500.00000 0 -24679757.015 5264803.854 3640624.895 10 0 60949 77400.00000 0 -24901340.804 5444206.374 442528.355 10 0 60949 78300.00000 0 -24726470.069 5544015.006 -2764175.136 10 0 60949 79200.00000 0 -24171569.440 5511647.481 -5917063.463 10 0 60949 80100.00000 0 -23265449.715 5299507.610 -8954730.104 10 0 60949 81000.00000 0 -22048070.939 4867257.806 -11817991.356 10 0 60949 81900.00000 0 -20568853.360 4183788.372 -14451051.109 10 0 60949 82800.00000 0 -18884607.700 3228798.275 -16802599.202 10 0 60949 83700.00000 0 -17057172.483 1993918.679 -18826820.837 10 0 60949 84600.00000 0 -15150858.589 483330.051 -20484296.560 10 0 60949 85500.00000 0 -13229809.320 -1286154.576 -21742774.655 10 0 60950 0.00000 0 -11355387.749 -3285544.681 -22577800.655 10 0 60950 900.00000 0 -9583700.492 -5474648.481 -22973192.110 10 0 60950 1800.00000 0 -7963364.425 -7803527.181 -22921348.661 10 0 60950 2700.00000 0 -6533606.292 -10214370.126 -22423393.363 10 0 60950 3600.00000 0 -5322776.668 -12643709.955 -21489141.898 10 0 60950 4500.00000 0 -4347338.350 -15024886.140 -20136901.478 10 0 60950 5400.00000 0 -3611370.213 -17290653.853 -18393103.919 10 0 60950 6300.00000 0 -3106605.488 -19375829.258 -16291780.688 10 0 60950 7200.00000 0 -2813000.822 -21219860.933 -13873890.760 10 0 60950 8100.00000 0 -2699810.149 -22769220.378 -11186514.954 10 0 60950 9000.00000 0 -2727116.135 -23979512.355 -8281932.937 10 0 60950 9900.00000 0 -2847752.908 -24817217.613 -5216601.393 10 0 60950 10800.00000 0 -3009537.458 -25260996.166 -2050053.642 10 0 60950 11700.00000 0 -3157714.336 -25302497.816 1156257.542 10 0 60950 12600.00000 0 -3237509.688 -24946647.291 4340151.181 10 0 60950 13500.00000 0 -3196686.281 -24211393.376 7439920.229 10 0 60950 14400.00000 0 -2987991.587 -23126933.757 10395521.422 10 0 60950 15300.00000 0 -2571395.693 -21734449.014 13149730.157 10 0 60950 16200.00000 0 -1916024.952 -20084399.363 15649238.643 10 0 60950 17100.00000 0 -1001710.130 -18234455.649 17845677.002 10 0 60950 18000.00000 0 179916.000 -16247150.820 19696538.511 10 0 60950 18900.00000 0 1624817.941 -14187349.325 21165992.302 10 0 60950 19800.00000 0 3316479.483 -12119638.980 22225568.897 10 0 60950 20700.00000 0 5226352.714 -10105752.746 22854706.295 10 0 60950 21600.00000 0 7314816.842 -8202126.439 23041146.784 10 0 60950 22500.00000 0 9532608.650 -6457692.623 22781177.200 10 0 60950 23400.00000 0 11822667.084 -4912001.330 22079707.897 10 0 60950 24300.00000 0 14122317.349 -3593744.863 20950188.457 10 0 60950 25200.00000 0 16365705.690 -2519747.484 19414360.817 10 0 60950 26100.00000 0 18486385.290 -1694461.827 17501853.395 10 0 60950 27000.00000 0 20419946.971 -1109993.043 15249622.583 10 0 60950 27900.00000 0 22106585.891 -746649.884 12701250.898 10 0 60950 28800.00000 0 23493497.374 -573999.960 9906113.959 10 0 60950 29700.00000 0 24537001.448 -552385.131 6918431.248 10 0 60950 30600.00000 0 25204306.414 -634833.417 3796218.202 10 0 60950 31500.00000 0 25474836.392 -769286.669 600159.627 10 0 60950 32400.00000 0 25341065.790 -901049.438 -2607573.599 10 0 60950 33300.00000 0 24808824.360 -975354.613 -5764541.031 10 0 60950 34200.00000 0 23897058.793 -939935.971 -8809257.747 10 0 60950 35100.00000 0 22637060.053 -747497.137 -11682403.030 10 0 60950 36000.00000 0 21071188.406 -357970.593 -14327987.852 10 0 60950 36900.00000 0 19251149.725 259530.782 -16694457.066 10 0 60950 37800.00000 0 17235895.777 1125154.069 -18735703.766 10 0 60950 38700.00000 0 15089237.249 2247206.200 -20411975.158 10 0 60950 39600.00000 0 12877270.422 3621561.311 -21690651.654 10 0 60950 40500.00000 0 10665726.092 5231601.730 -22546883.800 10 0 60950 41400.00000 0 8517352.361 7048696.001 -22964074.656 10 0 60950 42300.00000 0 6489441.146 9033194.433 -22934198.516 10 0 60950 43200.00000 0 4631601.776 11135900.705 -22457950.262 10 0 60950 44100.00000 0 2983874.237 13299957.996 -21544723.064 10 0 60950 45000.00000 0 1575259.965 15463070.575 -20212415.516 10 0 60950 45900.00000 0 422730.200 17559967.803 -18487072.654 10 0 60950 46800.00000 0 -469248.413 19525007.377 -16402368.485 10 0 60950 47700.00000 0 -1108653.182 21294808.889 -13998940.732 10 0 60950 48600.00000 0 -1515314.475 22810807.640 -11323591.323 10 0 60950 49500.00000 0 -1719821.659 24021622.185 -8428368.699 10 0 60950 50400.00000 0 -1761974.013 24885136.944 -5369550.331 10 0 60950 51300.00000 0 -1688843.766 25370213.440 -2206545.654 10 0 60950 52200.00000 0 -1552534.482 25457959.347 999258.892 10 0 60950 53100.00000 0 -1407730.522 25142503.210 4185690.021 10 0 60950 54000.00000 0 -1309141.801 24431243.448 7290989.763 10 0 60950 54900.00000 0 -1308952.026 23344562.230 10255006.473 10 0 60950 55800.00000 0 -1454378.157 21915017.030 13020351.927 10 0 60950 56700.00000 0 -1785443.811 20186044.296 15533502.734 10 0 60950 57600.00000 0 -2333060.110 18210229.601 17745825.609 10 0 60950 58500.00000 0 -3117494.523 16047216.361 19614507.673 10 0 60950 59400.00000 0 -4147291.977 13761339.737 21103374.945 10 0 60950 60300.00000 0 -5418693.808 11419083.311 22183584.326 10 0 60950 61200.00000 0 -6915579.562 9086463.135 22834176.676 10 0 60950 62100.00000 0 -8609935.231 6826446.479 23042481.039 10 0 60950 63000.00000 0 -10462829.901 4696511.051 22804362.631 10 0 60950 63900.00000 0 -12425861.907 2746444.691 22124309.717 10 0 60950 64800.00000 0 -14443016.244 1016475.789 21015357.296 10 0 60950 65700.00000 0 -16452857.873 -464188.778 19498848.150 10 0 60950 66600.00000 0 -18390971.355 -1678357.884 17604034.666 10 0 60950 67500.00000 0 -20192546.606 -2621341.410 15367527.705 10 0 60950 68400.00000 0 -21795003.912 -3300906.246 12832601.620 10 0 60950 69300.00000 0 -23140548.975 -3736704.696 10048367.467 10 0 60950 70200.00000 0 -24178551.009 -3959199.033 7068829.201 10 0 60950 71100.00000 0 -24867643.562 -4008127.277 3951840.288 10 0 60950 72000.00000 0 -25177458.826 -3930574.810 757980.579 10 0 60950 72900.00000 0 -25089921.161 -3778733.593 -2450624.674 10 0 60950 73800.00000 0 -24600043.888 -3607444.332 -5611520.227 10 0 60950 74700.00000 0 -23716194.322 -3471626.653 -8663146.098 10 0 60950 75600.00000 0 -22459814.594 -3423707.466 -11546047.670 10 0 60950 76500.00000 0 -20864609.025 -3511158.037 -14204045.802 10 0 60950 77400.00000 0 -18975231.660 -3774245.839 -16585342.835 10 0 60950 78300.00000 0 -16845528.970 -4244098.072 -18643541.805 10 0 60950 79200.00000 0 -14536411.661 -4941160.432 -20338558.124 10 0 60950 80100.00000 0 -12113445.329 -5874117.679 -21637405.333 10 0 60950 81000.00000 0 -9644261.418 -7039322.731 -22514839.349 10 0 60950 81900.00000 0 -7195897.345 -8420759.230 -22953848.709 10 0 60950 82800.00000 0 -4832177.357 -9990539.722 -22945981.517 10 0 60950 83700.00000 0 -2611243.548 -11709918.784 -22491503.233 10 0 60950 84600.00000 0 -583339.781 -13530778.636 -21599382.834 10 0 60950 85500.00000 0 1211059.733 -15397524.782 -20287108.269 99